SKK55 GVNP-GOBD

Flight info

Callsign SKK55
Flight time 1h 2m
Altitude 37000
Route MILPU1N SONVA DCT MOGSA DCT PIVSA PIVSA1D
Aircraft B738/M-SDE2E3FGHIRWXY/LB1

Departure

Time 2026-04-27 16:36
Airport Nelson Mandela International Airport (GVNP)

Arrival

Time 2026-04-27 17:39
Airport Blaise Diagne International Airport (GOBD)
Time Latitude Longitude Altitude Speed Heading
2026-04-27 16:21 14.94508 -23.48482 325 ft 0 kts 22°
2026-04-27 16:23 14.94510 -23.48481 325 ft 1 kts 22°
2026-04-27 16:23 14.94524 -23.48475 325 ft 3 kts 22°
2026-04-27 16:24 14.94549 -23.48463 326 ft 4 kts 30°
2026-04-27 16:24 14.94575 -23.48419 329 ft 4 kts 92°
2026-04-27 16:25 14.94566 -23.48381 325 ft 1 kts 107°
2026-04-27 16:25 14.94565 -23.48379 326 ft 0 kts 107°
2026-04-27 16:30 14.94565 -23.48378 326 ft 1 kts 107°
2026-04-27 16:31 14.94561 -23.48367 327 ft 0 kts 111°
2026-04-27 16:31 14.94558 -23.48360 326 ft 3 kts 115°
2026-04-27 16:32 14.94485 -23.48319 325 ft 8 kts 190°
2026-04-27 16:32 14.94425 -23.48341 326 ft 11 kts 201°
2026-04-27 16:33 14.94241 -23.48416 324 ft 22 kts 202°
2026-04-27 16:33 14.94087 -23.48481 323 ft 25 kts 202°
2026-04-27 16:33 14.93917 -23.48553 320 ft 27 kts 202°
2026-04-27 16:33 14.93746 -23.48626 322 ft 26 kts 202°
2026-04-27 16:34 14.93537 -23.48712 319 ft 23 kts 201°
2026-04-27 16:34 14.93439 -23.48750 316 ft 22 kts 201°
2026-04-27 16:34 14.93321 -23.48799 315 ft 6 kts 203°
2026-04-27 16:34 14.93286 -23.48832 316 ft 8 kts 224°
2026-04-27 16:35 14.93266 -23.48837 315 ft 1 kts 137°
2026-04-27 16:35 14.93269 -23.48828 315 ft 1 kts 60°
2026-04-27 16:35 14.93300 -23.48806 316 ft 0 kts 22°
2026-04-27 16:36 14.93351 -23.48786 317 ft 36 kts 21°
2026-04-27 16:36 14.93845 -23.48582 323 ft 115 kts 21°
2026-04-27 16:36 14.94790 -23.48190 414 ft 171 kts 22°
2026-04-27 16:36 14.95906 -23.47742 1458 ft 164 kts 19°
2026-04-27 16:37 14.96932 -23.47315 2413 ft 168 kts 21°
2026-04-27 16:37 14.98111 -23.46822 2714 ft 200 kts 21°
2026-04-27 16:37 14.99486 -23.46248 2993 ft 228 kts 21°
2026-04-27 16:37 15.01054 -23.45596 3389 ft 252 kts 20°
2026-04-27 16:38 15.02683 -23.44803 4079 ft 264 kts 34°
2026-04-27 16:38 15.03962 -23.43377 4787 ft 280 kts 58°
2026-04-27 16:38 15.04692 -23.41477 5552 ft 289 kts 77°
2026-04-27 16:38 15.04663 -23.39394 6300 ft 295 kts 103°
2026-04-27 16:39 15.04113 -23.37349 7122 ft 296 kts 108°
2026-04-27 16:39 15.03500 -23.35306 7921 ft 299 kts 109°
2026-04-27 16:39 15.02876 -23.33241 8708 ft 302 kts 109°
2026-04-27 16:39 15.02258 -23.31161 9498 ft 304 kts 109°
2026-04-27 16:40 15.01645 -23.29065 9919 ft 306 kts 109°
2026-04-27 16:40 15.01029 -23.26948 10006 ft 308 kts 109°
2026-04-27 16:40 15.00413 -23.24819 10023 ft 310 kts 109°
2026-04-27 16:40 14.99778 -23.22640 10147 ft 327 kts 109°
2026-04-27 16:41 14.99096 -23.20305 10328 ft 351 kts 109°
2026-04-27 16:41 14.98377 -23.17840 10741 ft 363 kts 109°
2026-04-27 16:41 14.97652 -23.15342 11001 ft 363 kts 109°
2026-04-27 16:41 14.96926 -23.12836 11002 ft 365 kts 109°
2026-04-27 16:42 14.96194 -23.10315 11014 ft 367 kts 109°
2026-04-27 16:42 14.95454 -23.07769 11250 ft 374 kts 109°
2026-04-27 16:42 14.94706 -23.05199 12055 ft 373 kts 109°
2026-04-27 16:42 14.93958 -23.02631 12810 ft 374 kts 108°
2026-04-27 16:43 14.93201 -23.00032 13414 ft 380 kts 108°
2026-04-27 16:43 14.92435 -22.97403 14056 ft 384 kts 108°
2026-04-27 16:43 14.91658 -22.94738 14612 ft 389 kts 108°
2026-04-27 16:43 14.90874 -22.92053 15169 ft 393 kts 108°
2026-04-27 16:44 14.90081 -22.89333 15701 ft 397 kts 108°
2026-04-27 16:44 14.89280 -22.86589 16262 ft 401 kts 107°
2026-04-27 16:44 14.88471 -22.83818 16786 ft 405 kts 107°
2026-04-27 16:44 14.87652 -22.81017 17294 ft 409 kts 107°
2026-04-27 16:45 14.86878 -22.78171 17806 ft 413 kts 100°
2026-04-27 16:45 14.86592 -22.75211 18298 ft 416 kts 92°
2026-04-27 16:45 14.86475 -22.72212 18728 ft 419 kts 91°
2026-04-27 16:45 14.86394 -22.69195 19188 ft 421 kts 90°
2026-04-27 16:46 14.86310 -22.66200 19639 ft 423 kts 91°
2026-04-27 16:46 14.86210 -22.63152 20082 ft 426 kts 91°
2026-04-27 16:46 14.86094 -22.60083 20518 ft 429 kts 91°
2026-04-27 16:46 14.85966 -22.56996 20962 ft 431 kts 91°
2026-04-27 16:47 14.85830 -22.53897 21396 ft 433 kts 91°
2026-04-27 16:47 14.85689 -22.50773 21814 ft 436 kts 91°
2026-04-27 16:47 14.85546 -22.47633 22238 ft 438 kts 91°
2026-04-27 16:47 14.85401 -22.44479 22656 ft 441 kts 91°
2026-04-27 16:48 14.85256 -22.41301 23059 ft 443 kts 91°
2026-04-27 16:48 14.85110 -22.38110 23451 ft 446 kts 91°
2026-04-27 16:48 14.84963 -22.34901 23792 ft 449 kts 91°
2026-04-27 16:49 14.84665 -22.28424 24406 ft 454 kts 91°
2026-04-27 16:49 14.84514 -22.25158 24703 ft 457 kts 91°
2026-04-27 16:49 14.84362 -22.21872 24999 ft 459 kts 91°
2026-04-27 16:49 14.84208 -22.18562 25291 ft 462 kts 91°
2026-04-27 16:50 14.84053 -22.15238 25571 ft 465 kts 91°
2026-04-27 16:50 14.83897 -22.11896 25853 ft 467 kts 91°
2026-04-27 16:50 14.83740 -22.08535 26134 ft 470 kts 91°
2026-04-27 16:50 14.83556 -22.05153 26405 ft 472 kts 92°
2026-04-27 16:51 14.83324 -22.01879 26665 ft 475 kts 93°
2026-04-27 16:51 14.83054 -21.98473 26929 ft 478 kts 93°
2026-04-27 16:51 14.82774 -21.95044 27188 ft 480 kts 93°
2026-04-27 16:51 14.82494 -21.91597 27442 ft 482 kts 93°
2026-04-27 16:52 14.82216 -21.88132 27693 ft 485 kts 93°
2026-04-27 16:52 14.81943 -21.84653 27940 ft 487 kts 92°
2026-04-27 16:52 14.81671 -21.81158 28182 ft 489 kts 92°
2026-04-27 16:52 14.81400 -21.77643 28419 ft 492 kts 92°
2026-04-27 16:53 14.81128 -21.74114 28651 ft 494 kts 92°
2026-04-27 16:53 14.80855 -21.70568 28877 ft 496 kts 92°
2026-04-27 16:53 14.80580 -21.67012 29103 ft 498 kts 92°
2026-04-27 16:53 14.80303 -21.63435 29320 ft 500 kts 92°
2026-04-27 16:54 14.80024 -21.59845 29533 ft 502 kts 92°
2026-04-27 16:54 14.79743 -21.56242 29746 ft 504 kts 92°
2026-04-27 16:54 14.79461 -21.52624 29952 ft 506 kts 92°
2026-04-27 16:54 14.79176 -21.48989 30134 ft 508 kts 92°
2026-04-27 16:55 14.78894 -21.45395 30306 ft 510 kts 92°
2026-04-27 16:55 14.78607 -21.41744 30494 ft 511 kts 92°
2026-04-27 16:55 14.78318 -21.38081 30682 ft 512 kts 92°
2026-04-27 16:55 14.78028 -21.34417 30907 ft 512 kts 92°
2026-04-27 16:56 14.77739 -21.30761 31182 ft 510 kts 92°
2026-04-27 16:56 14.77449 -21.27109 31464 ft 509 kts 93°
2026-04-27 16:56 14.77160 -21.23465 31725 ft 509 kts 93°
2026-04-27 16:56 14.76871 -21.19829 31979 ft 508 kts 93°
2026-04-27 16:57 14.76581 -21.16189 32255 ft 507 kts 93°
2026-04-27 16:57 14.76291 -21.12560 32516 ft 507 kts 93°
2026-04-27 16:57 14.76001 -21.08934 32783 ft 506 kts 94°
2026-04-27 16:57 14.75711 -21.05313 33065 ft 506 kts 94°
2026-04-27 16:58 14.75420 -21.01696 33353 ft 505 kts 94°
2026-04-27 16:58 14.75130 -20.98087 33641 ft 504 kts 94°
2026-04-27 16:58 14.74839 -20.94484 33910 ft 503 kts 94°
2026-04-27 16:58 14.74548 -20.90883 34158 ft 503 kts 94°
2026-04-27 16:59 14.74257 -20.87286 34408 ft 502 kts 94°
2026-04-27 16:59 14.73966 -20.83696 34660 ft 501 kts 94°
2026-04-27 16:59 14.73675 -20.80114 34887 ft 500 kts 94°
2026-04-27 16:59 14.73384 -20.76535 35126 ft 500 kts 94°
2026-04-27 17:00 14.72899 -20.70604 35533 ft 498 kts 94°
2026-04-27 17:00 14.72509 -20.65833 35806 ft 498 kts 94°
2026-04-27 17:00 14.72216 -20.62268 36022 ft 498 kts 94°
2026-04-27 17:01 14.71924 -20.58710 36263 ft 496 kts 94°
2026-04-27 17:01 14.71632 -20.55163 36518 ft 495 kts 94°
2026-04-27 17:01 14.71340 -20.51621 36756 ft 494 kts 94°
2026-04-27 17:01 14.71052 -20.48135 36940 ft 494 kts 95°
2026-04-27 17:02 14.70758 -20.44590 36987 ft 497 kts 95°
2026-04-27 17:02 14.70168 -20.37477 36989 ft 496 kts 95°
2026-04-27 17:03 14.69578 -20.30402 36987 ft 493 kts 95°
2026-04-27 17:03 14.68988 -20.23368 36991 ft 490 kts 96°
2026-04-27 17:04 14.67502 -20.16532 37004 ft 487 kts 109°
2026-04-27 17:04 14.65318 -20.09903 36995 ft 488 kts 110°
2026-04-27 17:05 14.63116 -20.03277 36997 ft 489 kts 110°
2026-04-27 17:05 14.60951 -19.96613 36992 ft 490 kts 109°
2026-04-27 17:06 14.58800 -19.89916 36993 ft 492 kts 109°
2026-04-27 17:06 14.56645 -19.83196 36989 ft 494 kts 109°
2026-04-27 17:07 14.54478 -19.76451 36993 ft 496 kts 109°
2026-04-27 17:07 14.52303 -19.69693 36988 ft 497 kts 109°
2026-04-27 17:08 14.50120 -19.62923 36991 ft 497 kts 109°
2026-04-27 17:08 14.47936 -19.56154 36978 ft 497 kts 109°
2026-04-27 17:09 14.45752 -19.49392 36977 ft 496 kts 109°
2026-04-27 17:09 14.43568 -19.42640 36834 ft 497 kts 109°
2026-04-27 17:09 14.42478 -19.39271 36699 ft 492 kts 109°
2026-04-27 17:10 14.41403 -19.35948 36738 ft 489 kts 110°
2026-04-27 17:10 14.40317 -19.32598 36460 ft 495 kts 109°
2026-04-27 17:10 14.39223 -19.29225 36230 ft 497 kts 109°
2026-04-27 17:10 14.38129 -19.25851 36037 ft 495 kts 109°
2026-04-27 17:11 14.37036 -19.22483 35998 ft 495 kts 109°
2026-04-27 17:11 14.33757 -19.12389 35975 ft 494 kts 109°
2026-04-27 17:12 14.30479 -19.02314 35976 ft 494 kts 109°
2026-04-27 17:13 14.28295 -18.95610 35824 ft 492 kts 109°
2026-04-27 17:13 14.27210 -18.92282 35359 ft 488 kts 109°
2026-04-27 17:13 14.26141 -18.89006 34712 ft 490 kts 109°
2026-04-27 17:13 14.25051 -18.85666 33994 ft 494 kts 109°
2026-04-27 17:14 14.23951 -18.82301 33193 ft 497 kts 109°
2026-04-27 17:14 14.22850 -18.78932 32613 ft 495 kts 109°
2026-04-27 17:14 14.21757 -18.75587 32183 ft 488 kts 109°
2026-04-27 17:14 14.20687 -18.72315 31627 ft 478 kts 108°
2026-04-27 17:15 14.19627 -18.69074 30847 ft 476 kts 108°
2026-04-27 17:15 14.18575 -18.65862 30382 ft 470 kts 108°
2026-04-27 17:15 14.17531 -18.62674 29848 ft 469 kts 108°
2026-04-27 17:15 14.16491 -18.59501 29344 ft 466 kts 108°
2026-04-27 17:16 14.15458 -18.56350 28846 ft 462 kts 108°
2026-04-27 17:16 14.14433 -18.53223 28360 ft 459 kts 108°
2026-04-27 17:16 14.13416 -18.50124 27894 ft 455 kts 109°
2026-04-27 17:16 14.12406 -18.47049 27438 ft 451 kts 109°
2026-04-27 17:17 14.11405 -18.44000 26976 ft 448 kts 109°
2026-04-27 17:17 14.10410 -18.40974 26513 ft 445 kts 109°
2026-04-27 17:17 14.09422 -18.37969 26071 ft 441 kts 109°
2026-04-27 17:18 14.07465 -18.32020 25149 ft 436 kts 109°
2026-04-27 17:18 14.06492 -18.29067 24690 ft 434 kts 109°
2026-04-27 17:18 14.05525 -18.26130 24228 ft 432 kts 109°
2026-04-27 17:18 14.04562 -18.23209 23771 ft 430 kts 109°
2026-04-27 17:19 14.03603 -18.20299 23269 ft 428 kts 109°
2026-04-27 17:19 14.02648 -18.17402 22765 ft 425 kts 110°
2026-04-27 17:19 14.01701 -18.14532 22299 ft 422 kts 110°
2026-04-27 17:19 14.00761 -18.11684 21842 ft 418 kts 110°
2026-04-27 17:20 13.99830 -18.08863 21405 ft 414 kts 110°
2026-04-27 17:20 13.98905 -18.06065 20957 ft 411 kts 110°
2026-04-27 17:20 13.98061 -18.03267 20515 ft 409 kts 101°
2026-04-27 17:20 13.97997 -18.00364 20086 ft 406 kts 80°
2026-04-27 17:21 13.98779 -17.97600 19658 ft 401 kts 63°
2026-04-27 17:21 14.00258 -17.95191 19236 ft 396 kts 52°
2026-04-27 17:21 14.01346 -17.93690 18930 ft 395 kts 51°
2026-04-27 17:21 14.03562 -17.90729 18358 ft 393 kts 50°
2026-04-27 17:22 14.05231 -17.88510 17880 ft 391 kts 50°
2026-04-27 17:22 14.06886 -17.86296 17432 ft 388 kts 51°
2026-04-27 17:22 14.08518 -17.84094 16995 ft 385 kts 51°
2026-04-27 17:22 14.09611 -17.82610 16712 ft 383 kts 51°
2026-04-27 17:23 14.11211 -17.80431 16290 ft 380 kts 52°
2026-04-27 17:23 14.12798 -17.78263 15882 ft 378 kts 52°
2026-04-27 17:23 14.14373 -17.76107 15470 ft 375 kts 52°
2026-04-27 17:23 14.15935 -17.73967 15063 ft 373 kts 52°
2026-04-27 17:24 14.17489 -17.71838 14654 ft 371 kts 52°
2026-04-27 17:24 14.19036 -17.69718 14240 ft 369 kts 52°
2026-04-27 17:24 14.20578 -17.67604 13829 ft 368 kts 53°
2026-04-27 17:24 14.22114 -17.65498 13385 ft 367 kts 53°
2026-04-27 17:25 14.23640 -17.63404 12960 ft 364 kts 53°
2026-04-27 17:25 14.25154 -17.61326 12543 ft 361 kts 53°
2026-04-27 17:25 14.26638 -17.59290 12163 ft 359 kts 53°
2026-04-27 17:25 14.28149 -17.57215 11762 ft 356 kts 53°
2026-04-27 17:26 14.29609 -17.55210 11378 ft 353 kts 53°
2026-04-27 17:26 14.31076 -17.53195 10992 ft 350 kts 53°
2026-04-27 17:26 14.32534 -17.51192 10608 ft 348 kts 53°
2026-04-27 17:26 14.33970 -17.49219 10430 ft 339 kts 53°
2026-04-27 17:27 14.35357 -17.47313 10259 ft 324 kts 53°
2026-04-27 17:27 14.36676 -17.45499 10118 ft 308 kts 53°
2026-04-27 17:27 14.37941 -17.43760 9998 ft 299 kts 53°
2026-04-27 17:27 14.39177 -17.42060 9762 ft 296 kts 53°
2026-04-27 17:28 14.40406 -17.40368 9470 ft 294 kts 53°
2026-04-27 17:28 14.41627 -17.38687 9183 ft 292 kts 53°
2026-04-27 17:28 14.44048 -17.35355 8607 ft 289 kts 52°
2026-04-27 17:29 14.45248 -17.33704 8320 ft 287 kts 52°
2026-04-27 17:29 14.46443 -17.32057 8034 ft 286 kts 53°
2026-04-27 17:29 14.47212 -17.30189 7731 ft 286 kts 85°
2026-04-27 17:29 14.46847 -17.28216 7469 ft 282 kts 121°
2026-04-27 17:30 14.45564 -17.26726 7233 ft 277 kts 138°
2026-04-27 17:30 14.42953 -17.23792 6663 ft 278 kts 128°
2026-04-27 17:30 14.41853 -17.22154 6382 ft 278 kts 122°
2026-04-27 17:31 14.40884 -17.20428 6092 ft 278 kts 117°
2026-04-27 17:31 14.40041 -17.18643 5812 ft 276 kts 113°
2026-04-27 17:31 14.39320 -17.16811 5535 ft 275 kts 109°
2026-04-27 17:31 14.38731 -17.14955 5371 ft 269 kts 105°
2026-04-27 17:32 14.38282 -17.13115 5240 ft 261 kts 100°
2026-04-27 17:32 14.37830 -17.09575 5045 ft 238 kts 81°
2026-04-27 17:32 14.38396 -17.08072 4921 ft 217 kts 46°
2026-04-27 17:33 14.39583 -17.07282 4787 ft 200 kts
2026-04-27 17:33 14.40941 -17.07157 4640 ft 195 kts
2026-04-27 17:33 14.42252 -17.07090 4598 ft 184 kts 359°
2026-04-27 17:33 14.43555 -17.07073 4393 ft 189 kts 358°
2026-04-27 17:34 14.44873 -17.07075 4155 ft 189 kts 357°
2026-04-27 17:34 14.46178 -17.07085 3921 ft 186 kts 358°
2026-04-27 17:34 14.47462 -17.07096 3691 ft 185 kts 358°
2026-04-27 17:34 14.48754 -17.07109 3457 ft 186 kts 359°
2026-04-27 17:35 14.50042 -17.07121 3216 ft 185 kts 359°
2026-04-27 17:35 14.51314 -17.07134 2994 ft 181 kts 359°
2026-04-27 17:35 14.52563 -17.07145 2752 ft 176 kts 360°
2026-04-27 17:35 14.53745 -17.07155 2549 ft 164 kts 360°
2026-04-27 17:36 14.54849 -17.07166 2370 ft 152 kts
2026-04-27 17:36 14.55902 -17.07177 2178 ft 148 kts
2026-04-27 17:36 14.56917 -17.07186 1970 ft 141 kts
2026-04-27 17:36 14.57875 -17.07192 1782 ft 136 kts 360°
2026-04-27 17:37 14.58809 -17.07182 1581 ft 132 kts
2026-04-27 17:37 14.59756 -17.07198 1373 ft 138 kts 358°
2026-04-27 17:37 14.60702 -17.07191 1227 ft 135 kts
2026-04-27 17:37 14.61631 -17.07206 1090 ft 131 kts 359°
2026-04-27 17:38 14.62544 -17.07257 913 ft 132 kts
2026-04-27 17:38 14.63467 -17.07255 755 ft 135 kts
2026-04-27 17:38 14.64409 -17.07248 534 ft 135 kts 359°
2026-04-27 17:38 14.65321 -17.07267 386 ft 131 kts 359°
2026-04-27 17:39 14.66212 -17.07280 276 ft 117 kts 360°
2026-04-27 17:39 14.66891 -17.07284 273 ft 78 kts 359°
2026-04-27 17:39 14.67286 -17.07287 270 ft 35 kts 359°
2026-04-27 17:39 14.67485 -17.07289 267 ft 27 kts 359°
2026-04-27 17:40 14.67665 -17.07262 266 ft 25 kts 21°
2026-04-27 17:40 14.67781 -17.07202 266 ft 0 kts 30°
2026-04-27 17:44 14.67795 -17.07192 265 ft 5 kts 37°
2026-04-27 17:44 14.67827 -17.07152 266 ft 8 kts 72°
2026-04-27 17:45 14.67801 -17.07106 266 ft 8 kts 159°
2026-04-27 17:45 14.67745 -17.07100 267 ft 8 kts 176°
2026-04-27 17:45 14.67691 -17.07097 283 ft 8 kts 176°
2026-04-27 17:45 14.67639 -17.07098 267 ft 7 kts 182°
2026-04-27 17:46 14.67585 -17.07095 268 ft 8 kts 169°
2026-04-27 17:46 14.67541 -17.07059 268 ft 8 kts 112°
2026-04-27 17:46 14.67523 -17.07003 268 ft 8 kts 130°
2026-04-27 17:46 14.67471 -17.06981 268 ft 8 kts 172°
2026-04-27 17:47 14.67415 -17.06976 269 ft 8 kts 168°
2026-04-27 17:47 14.67381 -17.06964 269 ft 8 kts 156°
2026-04-27 17:47 14.67302 -17.06921 269 ft 12 kts 157°
2026-04-27 17:47 14.67222 -17.06913 270 ft 12 kts 179°
2026-04-27 17:48 14.67137 -17.06912 270 ft 11 kts 179°
2026-04-27 17:48 14.67097 -17.06909 270 ft 2 kts 154°
2026-04-27 17:48 14.67092 -17.06894 272 ft 3 kts 103°
2026-04-27 17:48 14.67094 -17.06861 270 ft 5 kts 83°
2026-04-27 17:49 14.67096 -17.06851 270 ft 0 kts 83°